Home   Weather   Alta   Past weeks
Flag for Norway

Past Weather in Alta, Norway — Yesterday and Last 2 Weeks

Now
83 °F

Pleasantly warm.


Feels Like: 81 °F
Forecast: 75 / 55 °F
Wind: 7 mph from Southwest

Location: Alta Lufthavn

Current Time: Jul 22, 2019 at 1:59:22 pm

Latest Report: Jul 22, 2019 at 1:00 pm


Visibility: N/A

Pressure: 29.84 "Hg

Humidity: 29%

Dew Point: 47 °F

Location of AltaLocation

Past Weather in Alta — Graph

°F

Alta Temperature Yesterday

Maximum temperature yesterday: 79 °F (at 5:00 pm)
Minimum temperature yesterday: 58 °F (at 4:00 am)
Average temperature yesterday: 67 °F

High & Low Weather Summary for the Past Weeks

 TemperatureHumidityPressure
High82 °F (Jul 22, 12:00 pm)96% (Jul 15, 4:00 am)30.14 "Hg (Jul 15, 4:00 am)
Low46 °F (Jul 15, 2:00 am)29% (Jul 22, 12:00 pm)29.83 "Hg (Jul 21, 6:00 pm)
Average59 °F63%29.98 "Hg
* Reported Jul 7 12:00 pm — Jul 22 12:00 pm, Alta. Weather by CustomWeather, © 2019

Note: Actual official high and low records may vary slightly from our data, if they occured in-between our weather recording intervals... More about our weather records

Advertising

Alta Weather History for the Previous 24 Hours

Scroll right to see more
 ConditionsComfort  
Time TempWeatherWind HumidityBarometerVisibility
12:00 pm
Mon, Jul 22
82 °FPleasantly warm.7 mph29%29.84 "HgN/A
11:00 am80 °FPleasantly warm.8 mph35%29.84 "HgN/A
10:00 am77 °FWarm.3 mph51%29.84 "HgN/A
9:00 am75 °FMild.3 mph51%29.85 "HgN/A
8:00 am72 °FMild.2 mph59%29.85 "HgN/A
7:00 am70 °FMild.3 mph63%29.86 "HgN/A
6:00 am71 °FMild.3 mph58%29.86 "HgN/A
5:00 am68 °FMild.3 mph63%29.87 "HgN/A
4:00 am67 °FMild.2 mph64%29.87 "HgN/A
3:00 am67 °FMild.5 mph64%29.88 "HgN/A
2:00 am67 °FMild.5 mph63%29.88 "HgN/A
1:00 am69 °FMild.7 mph59%29.88 "HgN/A
11:00 pm
Sun, Jul 21
65 °FMild.1 mph78%29.88 "HgN/A
10:00 pm70 °FMild.1 mph61%29.88 "HgN/A
9:00 pm71 °FMild.5 mph58%29.86 "HgN/A
8:00 pm74 °FMild.2 mph55%29.85 "HgN/A
7:00 pm74 °FMild.5 mph52%29.84 "HgN/A
6:00 pm73 °FMild.7 mph57%29.83 "HgN/A
5:00 pm79 °FWarm.2 mph45%29.84 "HgN/A
4:00 pm78 °FWarm.2 mph45%29.85 "HgN/A
2:00 pm69 °FMild.5 mph66%29.88 "HgN/A
1:00 pm71 °FMild.2 mph60%29.90 "HgN/A
Weather by CustomWeather, © 2019

See weather overview